QPF
0.00 0.00 0.00 0.00 0.00 0.00 0.00 0.00 0.00 0.00 0.00 0.00 0.00 0.00 0.00 0.00 0.00 0.00 0.00 0.00 0.00 0.00 0.00 0.00 0.00 0.00 0.00 0.00 0.00 0.00 0.00 0.00 0.00 0.00 0.00 0.00 0.00 0.00 0.00 0.00 0.00 0.00 0.00 0.00
0.00 0.00 0.00 0.00 0.00 0.00 0.00 0.00 0.00 0.00 0.00 0.00 0.00 0.00 0.00 0.00 0.00 0.00 0.00 0.00 0.00 0.00 0.00 0.00 0.00 0.00 0.00 0.00 0.00 0.00 0.00 0.00 0.00 0.00 0.00 0.00 0.00 0.00 0.00 0.00 0.00 0.00 0.00 0.00
0.00 0.00 0.00 0.00 0.00 0.00 0.00 0.00 0.00 0.00 0.00 0.00 0.00 0.00 0.00 0.00 0.00 0.00 0.00 0.00 0.00 0.00 0.00 0.00 0.00 0.00 0.00 0.00 0.00 0.00 0.00 0.00 0.00 0.00 0.00 0.00 0.00 0.00 0.00 0.00 0.00 0.00 0.00 0.00
0.00 0.00 0.00 0.00 0.00 0.00 0.00 0.00 0.00 0.00 0.00 0.00 0.00 0.00 0.00 0.00 0.00 0.00 0.00 0.00 0.00 0.00 0.00 0.00 0.00 0.00 0.00 0.00 0.00 0.00 0.00 0.00 0.00 0.00 0.00 0.00 0.00 0.00 0.00 0.00 0.00 0.00 0.00 0.00
0.00 0.00 0.00 0.00 0.00 0.00 0.00 0.00 0.00 0.00 0.00 0.00 0.00 0.00 0.00 0.00 0.00 0.00 0.00 0.00 0.00 0.00 0.00 0.00 0.00 0.00 0.00 0.00 0.00 0.00 0.00 0.00 0.00 0.00 0.00 0.00 0.00 0.00 0.00 0.01 0.00 0.00 0.00 0.01
0.00 0.00 0.00 0.00 0.00 0.00 0.00 0.00 0.00 0.00 0.00 0.00 0.00 0.00 0.00 0.00 0.00 0.00 0.00 0.00 0.00 0.00 0.00 0.00 0.00 0.00 0.00 0.00 0.00 0.00 0.00 0.00 0.00 0.00 0.00 0.00 0.00 0.00 0.01 0.01 0.01 0.01 0.01 0.01
0.00 0.00 0.00 0.00 0.00 0.00 0.00 0.00 0.00 0.00 0.00 0.00 0.00 0.00 0.00 0.00 0.00 0.00 0.00 0.00 0.00 0.00 0.00 0.00 0.00 0.00 0.00 0.00 0.00 0.00 0.00 0.00 0.00 0.00 0.00 0.00 0.00 0.00 0.01 0.01 0.01 0.01 0.02 0.02
0.00 0.00 0.00 0.00 0.00 0.00 0.00 0.00 0.00 0.00 0.00 0.00 0.00 0.00 0.00 0.00 0.00 0.00 0.00 0.00 0.00 0.00 0.00 0.00 0.00 0.00 0.00 0.00 0.00 0.00 0.00 0.00 0.00 0.00 0.00 0.00 0.00 0.00 0.01 0.01 0.02 0.02 0.01 0.01
0.00 0.00 0.00 0.00 0.00 0.00 0.00 0.00 0.00 0.00 0.00 0.00 0.00 0.00 0.00 0.00 0.00 0.00 0.00 0.00 0.00 0.00 0.00 0.00 0.00 0.00 0.00 0.00 0.00 0.00 0.00 0.00 0.00 0.00 0.00 0.00 0.00 0.01 0.01 0.02 0.02 0.01 0.01 0.01
0.00 0.00 0.00 0.00 0.00 0.00 0.00 0.00 0.00 0.00 0.00 0.00 0.00 0.00 0.00 0.00 0.00 0.00 0.00 0.00 0.00 0.00 0.00 0.00 0.00 0.00 0.00 0.00 0.00 0.00 0.00 0.00 0.00 0.00 0.00 0.00 0.00 0.01 0.01 0.01 0.01 0.01 0.01 0.01
0.00 0.00 0.00 0.00 0.00 0.00 0.00 0.00 0.00 0.00 0.00 0.00 0.00 0.00 0.00 0.00 0.00 0.00 0.00 0.00 0.00 0.00 0.00 0.00 0.00 0.00 0.00 0.00 0.00 0.00 0.00 0.00 0.00 0.00 0.00 0.00 0.00 0.01 0.01 0.01 0.01 0.01 0.00 0.00
0.00 0.00 0.00 0.00 0.00 0.00 0.00 0.00 0.00 0.00 0.00 0.00 0.00 0.00 0.00 0.00 0.00 0.00 0.00 0.00 0.00 0.00 0.00 0.00 0.00 0.00 0.00 0.00 0.00 0.00 0.00 0.00 0.00 0.00 0.00 0.00 0.00 0.01 0.01 0.01 0.01 0.00 0.00 0.00
0.00 0.00 0.00 0.00 0.00 0.00 0.00 0.00 0.00 0.00 0.00 0.00 0.00 0.00 0.00 0.00 0.00 0.00 0.00 0.00 0.00 0.00 0.00 0.00 0.00 0.00 0.00 0.00 0.00 0.00 0.00 0.00 0.00 0.00 0.00 0.00 0.01 0.01 0.02 0.02 0.01 0.01 0.00 0.00
0.00 0.00 0.00 0.00 0.00 0.00 0.00 0.00 0.00 0.00 0.00 0.00 0.00 0.00 0.00 0.00 0.00 0.00 0.00 0.00 0.00 0.00 0.00 0.00 0.00 0.00 0.00 0.00 0.00 0.00 0.00 0.00 0.00 0.00 0.00 0.01 0.01 0.02 0.03 0.02 0.02 0.02 0.01 0.00
0.00 0.00 0.00 0.00 0.00 0.00 0.00 0.00 0.00 0.00 0.00 0.00 0.00 0.00 0.00 0.00 0.00 0.00 0.00 0.00 0.00 0.00 0.00 0.00 0.00 0.00 0.00 0.00 0.00 0.00 0.00 0.00 0.00 0.00 0.00 0.01 0.02 0.03 0.03 0.03 0.02 0.02 0.01 0.00
0.00 0.00 0.00 0.00 0.00 0.00 0.00 0.00 0.00 0.00 0.00 0.00 0.00 0.00 0.00 0.00 0.00 0.00 0.00 0.00 0.00 0.00 0.00 0.00 0.00 0.00 0.00 0.00 0.00 0.00 0.00 0.00 0.00 0.00 0.00 0.01 0.02 0.02 0.03 0.02 0.02 0.02 0.02 0.01
0.00 0.00 0.00 0.00 0.00 0.00 0.00 0.00 0.00 0.00 0.00 0.00 0.01 0.00 0.00 0.00 0.00 0.01 0.01 0.00 0.00 0.00 0.00 0.00 0.00 0.00 0.00 0.00 0.00 0.00 0.00 0.00 0.00 0.00 0.01 0.01 0.02 0.02 0.02 0.02 0.02 0.02 0.02 0.01
0.00 0.00 0.00 0.00 0.01 0.01 0.01 0.01 0.01 0.01 0.01 0.01 0.01 0.01 0.01 0.01 0.01 0.01 0.01 0.00 0.00 0.00 0.00 0.00 0.00 0.00 0.00 0.00 0.00 0.00 0.00 0.00 0.00 0.00 0.00 0.01 0.01 0.02 0.02 0.02 0.02 0.02 0.02 0.02
0.01 0.02 0.02 0.02 0.02 0.02 0.01 0.01 0.01 0.00 0.01 0.01 0.01 0.01 0.01 0.01 0.00 0.00 0.00 0.00 0.01 0.01 0.01 0.01 0.00 0.00 0.00 0.00 0.00 0.00 0.00 0.00 0.00 0.00 0.01 0.01 0.02 0.03 0.02 0.02 0.02 0.02 0.02 0.02
0.03 0.03 0.03 0.02 0.01 0.01 0.01 0.00 0.00 0.00 0.00 0.00 0.00 0.00 0.00 0.00 0.00 0.00 0.01 0.01 0.01 0.01 0.01 0.01 0.00 0.01 0.01 0.00 0.00 0.00 0.00 0.00 0.00 0.00 0.00 0.01 0.02 0.02 0.02 0.02 0.02 0.01 0.02 0.03
0.01 0.01 0.01 0.01 0.00 0.00 0.00 0.00 0.00 0.00 0.00 0.00 0.00 0.00 0.00 0.00 0.00 0.01 0.01 0.02 0.02 0.02 0.02 0.02 0.01 0.01 0.01 0.00 0.00 0.00 0.00 0.00 0.00 0.00 0.00 0.01 0.01 0.02 0.02 0.02 0.02 0.02 0.03 0.04
0.00 0.00 0.00 0.00 0.00 0.00 0.00 0.00 0.00 0.00 0.00 0.00 0.00 0.00 0.00 0.00 0.01 0.01 0.02 0.03 0.05 0.06 0.05 0.02 0.01 0.01 0.01 0.01 0.00 0.00 0.00 0.00 0.00 0.00 0.00 0.00 0.01 0.01 0.02 0.02 0.02 0.03 0.04 0.06
0.00 0.00 0.00 0.00 0.00 0.00 0.00 0.00 0.00 0.00 0.00 0.00 0.00 0.00 0.00 0.01 0.01 0.03 0.05 0.07 0.09 0.08 0.05 0.03 0.02 0.01 0.01 0.01 0.00 0.00 0.00 0.00 0.00 0.00 0.00 0.00 0.00 0.01 0.01 0.02 0.03 0.03 0.06 0.08
0.00 0.00 0.00 0.00 0.00 0.00 0.00 0.00 0.00 0.00 0.00 0.00 0.00 0.00 0.01 0.02 0.04 0.07 0.11 0.14 0.11 0.09 0.07 0.05 0.02 0.01 0.01 0.01 0.00 0.00 0.00 0.00 0.00 0.00 0.00 0.00 0.00 0.00 0.01 0.01 0.02 0.04 0.07 0.10
0.00 0.00 0.00 0.00 0.00 0.00 0.00 0.00 0.00 0.00 0.00 0.00 0.00 0.01 0.02 0.04 0.09 0.15 0.17 0.16 0.14 0.11 0.07 0.03 0.01 0.01 0.01 0.00 0.00 0.00 0.00 0.00 0.00 0.00 0.00 0.00 0.00 0.00 0.01 0.01 0.02 0.04 0.06 0.08
0.00 0.00 0.00 0.00 0.00 0.00 0.00 0.00 0.00 0.00 0.00 0.00 0.01 0.02 0.03 0.07 0.12 0.19 0.21 0.18 0.14 0.09 0.05 0.02 0.01 0.00 0.00 0.00 0.00 0.00 0.00 0.00 0.00 0.00 0.00 0.00 0.00 0.00 0.01 0.01 0.02 0.04 0.07 0.06
0.00 0.00 0.00 0.00 0.00 0.00 0.00 0.00 0.00 0.00 0.01 0.01 0.01 0.02 0.04 0.09 0.16 0.20 0.20 0.17 0.12 0.07 0.03 0.01 0.00 0.00 0.00 0.00 0.00 0.00 0.00 0.00 0.00 0.00 0.00 0.00 0.00 0.00 0.00 0.00 0.01 0.03 0.05 0.04
MSLP
1012.88 1012.96 1013.11 1013.33 1013.62 1013.95 1014.28 1014.56 1014.75 1014.84 1014.81 1014.70 1014.52 1014.31 1014.12 1013.95 1013.83 1013.76 1013.70 1013.65 1013.58 1013.48 1013.32 1013.13 1012.91 1012.68 1012.46 1012.27 1012.11 1011.98 1011.87 1011.77 1011.67 1011.55 1011.40 1011.23 1011.04 1010.84 1010.64 1010.43 1010.23 1010.04 1009.84 1009.65
1013.08 1013.15 1013.21 1013.29 1013.38 1013.48 1013.59 1013.69 1013.77 1013.81 1013.83 1013.81 1013.78 1013.74 1013.70 1013.66 1013.63 1013.57 1013.50 1013.39 1013.24 1013.05 1012.83 1012.60 1012.36 1012.15 1011.97 1011.83 1011.72 1011.63 1011.55 1011.46 1011.35 1011.20 1011.02 1010.80 1010.57 1010.32 1010.07 1009.83 1009.60 1009.37 1009.15 1008.94
1013.34 1013.38 1013.36 1013.29 1013.20 1013.11 1013.04 1012.99 1012.97 1012.98 1013.02 1013.08 1013.16 1013.24 1013.32 1013.37 1013.38 1013.34 1013.24 1013.08 1012.86 1012.61 1012.34 1012.08 1011.84 1011.65 1011.52 1011.42 1011.36 1011.32 1011.26 1011.18 1011.05 1010.87 1010.65 1010.39 1010.10 1009.80 1009.51 1009.22 1008.95 1008.69 1008.43 1008.18
1013.66 1013.62 1013.49 1013.29 1013.05 1012.80 1012.59 1012.43 1012.33 1012.31 1012.36 1012.47 1012.62 1012.79 1012.94 1013.04 1013.08 1013.04 1012.92 1012.72 1012.45 1012.16 1011.87 1011.60 1011.38 1011.23 1011.13 1011.08 1011.07 1011.05 1011.01 1010.92 1010.77 1010.57 1010.30 1009.99 1009.65 1009.30 1008.95 1008.62 1008.30 1007.99 1007.70 1007.40
1013.93 1013.78 1013.52 1013.19 1012.82 1012.45 1012.13 1011.89 1011.74 1011.70 1011.76 1011.90 1012.10 1012.32 1012.51 1012.65 1012.71 1012.67 1012.53 1012.31 1012.03 1011.73 1011.44 1011.19 1011.00 1010.88 1010.83 1010.82 1010.84 1010.84 1010.80 1010.69 1010.52 1010.27 1009.95 1009.59 1009.20 1008.80 1008.40 1008.02 1007.65 1007.30 1006.96 1006.62
1014.02 1013.72 1013.32 1012.86 1012.39 1011.94 1011.55 1011.26 1011.09 1011.04 1011.12 1011.28 1011.51 1011.76 1011.98 1012.14 1012.21 1012.18 1012.05 1011.84 1011.58 1011.31 1011.05 1010.84 1010.70 1010.63 1010.61 1010.64 1010.67 1010.67 1010.61 1010.49 1010.27 1009.98 1009.61 1009.19 1008.74 1008.29 1007.84 1007.41 1007.00 1006.61 1006.23 1005.84
1013.79 1013.32 1012.79 1012.22 1011.66 1011.16 1010.74 1010.44 1010.27 1010.24 1010.33 1010.52 1010.78 1011.05 1011.30 1011.49 1011.58 1011.58 1011.49 1011.32 1011.11 1010.89 1010.70 1010.55 1010.46 1010.44 1010.46 1010.50 1010.53 1010.52 1010.44 1010.28 1010.02 1009.67 1009.24 1008.77 1008.27 1007.76 1007.27 1006.80 1006.36 1005.93 1005.52 1005.11
1013.14 1012.52 1011.87 1011.22 1010.61 1010.08 1009.66 1009.38 1009.24 1009.24 1009.37 1009.60 1009.89 1010.19 1010.47 1010.69 1010.83 1010.89 1010.86 1010.76 1010.63 1010.49 1010.37 1010.29 1010.27 1010.29 1010.34 1010.39 1010.41 1010.38 1010.26 1010.04 1009.73 1009.32 1008.84 1008.31 1007.76 1007.21 1006.68 1006.19 1005.72 1005.27 1004.85 1004.44
1012.08 1011.34 1010.59 1009.89 1009.26 1008.74 1008.35 1008.12 1008.03 1008.08 1008.26 1008.53 1008.86 1009.20 1009.53 1009.80 1010.00 1010.12 1010.17 1010.17 1010.13 1010.09 1010.06 1010.06 1010.09 1010.15 1010.22 1010.27 1010.27 1010.20 1010.03 1009.76 1009.39 1008.92 1008.39 1007.81 1007.22 1006.64 1006.08 1005.57 1005.09 1004.65 1004.24 1003.85
1010.70 1009.87 1009.07 1008.35 1007.74 1007.26 1006.93 1006.76 1006.74 1006.86 1007.09 1007.41 1007.78 1008.17 1008.54 1008.87 1009.13 1009.34 1009.48 1009.58 1009.64 1009.69 1009.75 1009.82 1009.91 1010.00 1010.07 1010.10 1010.08 1009.96 1009.74 1009.42 1008.99 1008.48 1007.90 1007.28 1006.66 1006.05 1005.48 1004.96 1004.49 1004.07 1003.69 1003.34
1009.15 1008.28 1007.48 1006.79 1006.22 1005.82 1005.56 1005.47 1005.52 1005.70 1005.98 1006.35 1006.76 1007.18 1007.60 1007.98 1008.31 1008.59 1008.82 1009.01 1009.17 1009.31 1009.44 1009.57 1009.69 1009.80 1009.87 1009.88 1009.81 1009.65 1009.39 1009.02 1008.55 1007.99 1007.38 1006.73 1006.08 1005.46 1004.89 1004.37 1003.92 1003.53 1003.19 1002.90
1007.66 1006.81 1006.05 1005.42 1004.93 1004.60 1004.43 1004.41 1004.52 1004.76 1005.08 1005.47 1005.91 1006.35 1006.80 1007.21 1007.59 1007.93 1008.23 1008.49 1008.72 1008.93 1009.12 1009.28 1009.43 1009.53 1009.59 1009.58 1009.48 1009.28 1008.98 1008.57 1008.07 1007.49 1006.85 1006.19 1005.53 1004.90 1004.33 1003.82 1003.39 1003.03 1002.74 1002.51
1006.43 1005.65 1004.96 1004.42 1004.02 1003.77 1003.68 1003.72 1003.88 1004.14 1004.48 1004.88 1005.30 1005.75 1006.19 1006.61 1007.01 1007.38 1007.72 1008.02 1008.30 1008.54 1008.76 1008.95 1009.10 1009.20 1009.24 1009.20 1009.08 1008.85 1008.53 1008.10 1007.59 1007.00 1006.35 1005.69 1005.03 1004.40 1003.82 1003.32 1002.90 1002.57 1002.32 1002.14
1005.63 1004.93 1004.35 1003.90 1003.59 1003.42 1003.39 1003.47 1003.65 1003.91 1004.23 1004.59 1004.98 1005.39 1005.79 1006.19 1006.57 1006.93 1007.27 1007.59 1007.88 1008.13 1008.36 1008.55 1008.70 1008.79 1008.82 1008.76 1008.63 1008.40 1008.07 1007.65 1007.13 1006.55 1005.92 1005.26 1004.60 1003.96 1003.39 1002.88 1002.46 1002.14 1001.90 1001.75
1005.33 1004.73 1004.25 1003.90 1003.67 1003.57 1003.57 1003.67 1003.83 1004.06 1004.32 1004.62 1004.93 1005.25 1005.58 1005.92 1006.25 1006.57 1006.87 1007.17 1007.44 1007.69 1007.91 1008.09 1008.23 1008.32 1008.34 1008.29 1008.16 1007.94 1007.63 1007.22 1006.74 1006.18 1005.56 1004.91 1004.26 1003.62 1003.03 1002.51 1002.07 1001.73 1001.49 1001.34
1005.51 1005.02 1004.64 1004.36 1004.20 1004.13 1004.15 1004.22 1004.35 1004.50 1004.68 1004.87 1005.08 1005.30 1005.52 1005.75 1006.00 1006.24 1006.49 1006.74 1006.97 1007.20 1007.40 1007.57 1007.70 1007.79 1007.83 1007.79 1007.69 1007.50 1007.22 1006.86 1006.41 1005.89 1005.30 1004.67 1004.02 1003.38 1002.77 1002.21 1001.74 1001.35 1001.07 1000.89
1006.10 1005.70 1005.40 1005.18 1005.06 1005.00 1005.00 1005.03 1005.08 1005.14 1005.21 1005.28 1005.35 1005.43 1005.53 1005.64 1005.77 1005.92 1006.09 1006.27 1006.46 1006.65 1006.83 1006.99 1007.13 1007.24 1007.29 1007.30 1007.23 1007.09 1006.87 1006.57 1006.17 1005.69 1005.14 1004.53 1003.89 1003.23 1002.59 1001.99 1001.46 1001.02 1000.67 1000.42
1006.96 1006.63 1006.38 1006.21 1006.09 1006.02 1005.97 1005.94 1005.90 1005.85 1005.79 1005.72 1005.65 1005.59 1005.54 1005.52 1005.54 1005.58 1005.66 1005.77 1005.90 1006.06 1006.22 1006.38 1006.53 1006.66 1006.76 1006.81 1006.81 1006.73 1006.58 1006.33 1006.00 1005.57 1005.06 1004.47 1003.84 1003.17 1002.50 1001.86 1001.26 1000.74 1000.31 999.98
1007.94 1007.66 1007.44 1007.27 1007.14 1007.03 1006.92 1006.81 1006.67 1006.50 1006.32 1006.11 1005.90 1005.70 1005.51 1005.36 1005.26 1005.20 1005.19 1005.23 1005.32 1005.44 1005.59 1005.76 1005.93 1006.10 1006.24 1006.36 1006.42 1006.41 1006.33 1006.15 1005.88 1005.51 1005.04 1004.48 1003.86 1003.19 1002.49 1001.81 1001.15 1000.56 1000.04 999.61
1008.89 1008.63 1008.41 1008.23 1008.06 1007.90 1007.73 1007.53 1007.29 1007.01 1006.71 1006.38 1006.04 1005.71 1005.41 1005.15 1004.94 1004.79 1004.70 1004.69 1004.73 1004.83 1004.98 1005.16 1005.36 1005.57 1005.77 1005.94 1006.07 1006.13 1006.12 1006.01 1005.80 1005.49 1005.06 1004.54 1003.93 1003.27 1002.56 1001.84 1001.14 1000.48 999.89 999.37
1009.70 1009.44 1009.20 1008.98 1008.77 1008.55 1008.31 1008.03 1007.70 1007.33 1006.93 1006.50 1006.06 1005.64 1005.24 1004.89 1004.60 1004.39 1004.24 1004.18 1004.20 1004.29 1004.44 1004.64 1004.87 1005.12 1005.36 1005.59 1005.78 1005.90 1005.95 1005.90 1005.75 1005.49 1005.11 1004.62 1004.05 1003.40 1002.69 1001.97 1001.24 1000.54 999.88 999.29
1010.30 1010.01 1009.75 1009.49 1009.22 1008.94 1008.63 1008.28 1007.89 1007.45 1006.98 1006.49 1005.98 1005.50 1005.04 1004.64 1004.30 1004.04 1003.87 1003.78 1003.78 1003.87 1004.02 1004.24 1004.49 1004.77 1005.05 1005.32 1005.55 1005.72 1005.81 1005.82 1005.71 1005.49 1005.16 1004.72 1004.19 1003.57 1002.89 1002.17 1001.44 1000.72 1000.04 999.41
1010.66 1010.34 1010.03 1009.72 1009.41 1009.08 1008.72 1008.32 1007.88 1007.40 1006.90 1006.37 1005.84 1005.33 1004.86 1004.43 1004.08 1003.81 1003.62 1003.53 1003.53 1003.62 1003.78 1004.00 1004.27 1004.57 1004.87 1005.16 1005.42 1005.61 1005.73 1005.76 1005.70 1005.52 1005.23 1004.83 1004.34 1003.77 1003.13 1002.45 1001.75 1001.04 1000.35 999.70
1010.77 1010.42 1010.07 1009.72 1009.37 1009.00 1008.60 1008.18 1007.72 1007.24 1006.73 1006.21 1005.70 1005.20 1004.74 1004.33 1003.99 1003.74 1003.56 1003.48 1003.49 1003.58 1003.75 1003.97 1004.24 1004.54 1004.84 1005.13 1005.39 1005.59 1005.72 1005.76 1005.71 1005.56 1005.31 1004.96 1004.52 1004.00 1003.41 1002.78 1002.13 1001.46 1000.79 1000.15
1010.68 1010.29 1009.91 1009.54 1009.15 1008.76 1008.36 1007.93 1007.48 1007.02 1006.54 1006.06 1005.59 1005.14 1004.73 1004.37 1004.08 1003.86 1003.72 1003.66 1003.68 1003.79 1003.95 1004.17 1004.43 1004.71 1004.99 1005.26 1005.49 1005.67 1005.79 1005.83 1005.78 1005.65 1005.42 1005.11 1004.71 1004.25 1003.73 1003.16 1002.56 1001.94 1001.32 1000.71
1010.41 1010.01 1009.62 1009.23 1008.83 1008.44 1008.04 1007.63 1007.22 1006.80 1006.38 1005.96 1005.56 1005.19 1004.86 1004.57 1004.34 1004.18 1004.09 1004.06 1004.11 1004.22 1004.38 1004.59 1004.82 1005.07 1005.31 1005.54 1005.73 1005.87 1005.95 1005.97 1005.91 1005.78 1005.57 1005.28 1004.93 1004.52 1004.05 1003.55 1003.01 1002.46 1001.90 1001.34
1010.05 1009.65 1009.25 1008.86 1008.47 1008.09 1007.71 1007.34 1006.98 1006.62 1006.27 1005.94 1005.63 1005.35 1005.11 1004.92 1004.77 1004.68 1004.64 1004.66 1004.73 1004.85 1005.01 1005.20 1005.40 1005.60 1005.80 1005.97 1006.10 1006.20 1006.23 1006.21 1006.13 1005.99 1005.78 1005.51 1005.18 1004.81 1004.39 1003.95 1003.47 1002.98 1002.47 1001.97
Thickness
5742 5750 5754 5752 5753 5752 5737 5723 5710 5710 5706 5709 5711 5713 5713 5712 5709 5704 5699 5696 5692 5685 5679 5674 5669 5664 5658 5653 5647 5640 5632 5625 5617 5611 5603 5596 5589 5583 5579 5575 5572 5569 5565 5562
5735 5748 5749 5748 5755 5754 5747 5740 5728 5718 5712 5721 5721 5718 5715 5712 5706 5700 5697 5695 5691 5686 5679 5672 5667 5661 5655 5649 5643 5635 5627 5620 5613 5606 5598 5590 5583 5577 5572 5568 5565 5561 5558 5555
5717 5731 5735 5727 5747 5750 5746 5747 5735 5720 5719 5722 5717 5716 5713 5708 5704 5700 5698 5694 5689 5683 5675 5670 5664 5659 5652 5646 5639 5631 5623 5615 5608 5600 5592 5584 5578 5572 5567 5562 5558 5554 5550 5547
5711 5714 5708 5726 5758 5761 5748 5744 5743 5734 5727 5725 5720 5716 5713 5709 5705 5701 5696 5691 5686 5679 5673 5667 5662 5656 5649 5642 5634 5626 5618 5610 5602 5594 5586 5579 5572 5566 5561 5556 5552 5548 5544 5540
5705 5703 5710 5734 5754 5755 5740 5729 5737 5730 5726 5721 5714 5708 5706 5710 5707 5700 5695 5689 5682 5676 5671 5665 5658 5652 5644 5636 5628 5620 5613 5605 5597 5589 5581 5574 5567 5561 5556 5551 5547 5542 5539 5535
5707 5701 5696 5725 5755 5761 5740 5717 5736 5732 5726 5722 5712 5692 5694 5707 5705 5698 5694 5687 5680 5674 5668 5661 5654 5647 5639 5630 5622 5615 5608 5600 5591 5583 5576 5569 5563 5557 5552 5547 5542 5538 5535 5531
5706 5700 5711 5742 5759 5754 5716 5715 5735 5734 5729 5723 5711 5705 5708 5708 5701 5696 5691 5685 5679 5672 5662 5656 5650 5642 5633 5624 5616 5610 5602 5595 5587 5579 5571 5566 5560 5553 5548 5543 5539 5534 5531 5528
5704 5699 5709 5752 5753 5736 5732 5743 5740 5736 5732 5725 5719 5716 5711 5705 5698 5693 5687 5683 5676 5666 5658 5651 5644 5636 5627 5618 5612 5605 5597 5589 5582 5574 5568 5563 5555 5550 5544 5539 5534 5531 5526 5522
5719 5721 5743 5752 5753 5757 5752 5744 5742 5737 5734 5728 5719 5715 5710 5703 5695 5690 5685 5678 5671 5662 5653 5645 5638 5630 5622 5614 5607 5599 5591 5583 5577 5571 5564 5558 5552 5547 5541 5536 5531 5527 5522 5517
5729 5736 5749 5754 5757 5759 5755 5750 5748 5744 5738 5730 5722 5716 5709 5701 5692 5686 5680 5674 5666 5658 5648 5640 5632 5625 5617 5610 5602 5594 5586 5579 5573 5568 5562 5556 5550 5544 5538 5534 5530 5525 5519 5514
5726 5738 5748 5756 5758 5760 5759 5755 5749 5744 5739 5732 5724 5716 5708 5699 5691 5683 5676 5670 5662 5652 5644 5636 5628 5620 5613 5605 5598 5589 5581 5575 5570 5565 5559 5554 5549 5543 5538 5534 5529 5524 5519 5513
5722 5739 5735 5742 5754 5759 5755 5751 5747 5741 5735 5731 5725 5716 5707 5698 5690 5681 5673 5665 5656 5648 5639 5631 5623 5615 5608 5601 5593 5585 5578 5572 5567 5563 5558 5552 5547 5545 5542 5536 5533 5528 5521 5514
5741 5748 5747 5751 5755 5756 5754 5752 5748 5741 5734 5726 5721 5715 5705 5694 5686 5677 5669 5660 5652 5643 5634 5625 5617 5609 5602 5595 5588 5581 5574 5569 5566 5561 5556 5551 5546 5541 5540 5540 5536 5531 5525 5517
5751 5751 5748 5749 5747 5750 5751 5750 5746 5740 5733 5726 5718 5709 5701 5690 5680 5671 5663 5656 5648 5639 5629 5620 5612 5604 5597 5590 5583 5577 5571 5568 5564 5559 5554 5550 5545 5541 5537 5535 5533 5531 5526 5520
5746 5746 5742 5743 5742 5740 5740 5737 5731 5725 5722 5717 5710 5702 5693 5684 5674 5665 5657 5649 5640 5630 5622 5615 5607 5600 5592 5585 5579 5573 5568 5564 5561 5557 5553 5549 5545 5541 5539 5536 5533 5530 5526 5521
5736 5734 5731 5727 5723 5721 5720 5718 5712 5710 5709 5706 5699 5693 5686 5678 5668 5659 5650 5641 5632 5624 5617 5610 5603 5595 5588 5581 5575 5569 5564 5563 5560 5556 5552 5548 5545 5542 5540 5537 5534 5531 5528 5524
5714 5708 5705 5702 5700 5699 5698 5697 5696 5695 5695 5693 5688 5683 5675 5666 5657 5649 5642 5635 5628 5622 5615 5607 5599 5592 5584 5577 5571 5565 5560 5557 5557 5553 5550 5547 5544 5542 5540 5538 5535 5532 5530 5527
5692 5688 5686 5683 5682 5680 5680 5680 5680 5679 5678 5678 5676 5669 5662 5655 5648 5642 5636 5628 5620 5614 5608 5602 5594 5586 5579 5572 5566 5561 5556 5553 5551 5550 5548 5545 5543 5541 5539 5538 5536 5534 5532 5529
5672 5670 5669 5668 5666 5664 5662 5661 5661 5660 5660 5658 5656 5652 5649 5645 5641 5635 5627 5618 5612 5606 5602 5595 5588 5580 5573 5567 5562 5556 5552 5550 5549 5547 5545 5543 5541 5539 5538 5537 5536 5535 5533 5531
5654 5654 5653 5652 5652 5649 5647 5647 5646 5643 5641 5638 5636 5634 5631 5630 5628 5624 5617 5612 5608 5602 5597 5588 5580 5572 5567 5561 5558 5552 5548 5547 5545 5543 5541 5539 5537 5536 5536 5536 5536 5535 5534 5532
5635 5636 5636 5635 5634 5633 5631 5629 5627 5625 5624 5622 5619 5617 5618 5618 5616 5612 5606 5602 5601 5594 5587 5580 5571 5565 5560 5555 5552 5548 5545 5543 5541 5538 5536 5535 5534 5533 5534 5534 5534 5534 5533 5532
5615 5615 5615 5615 5613 5613 5612 5610 5608 5608 5607 5607 5606 5606 5605 5605 5604 5601 5597 5594 5592 5584 5576 5569 5563 5558 5554 5550 5546 5544 5541 5538 5535 5533 5531 5530 5529 5529 5530 5531 5533 5533 5533 5532
5593 5594 5593 5593 5592 5591 5592 5591 5591 5591 5590 5591 5591 5591 5591 5592 5591 5588 5586 5585 5581 5575 5568 5560 5555 5551 5548 5544 5541 5538 5535 5532 5529 5527 5526 5525 5525 5525 5527 5529 5530 5531 5532 5532
5573 5573 5573 5574 5574 5573 5572 5573 5574 5574 5574 5575 5575 5576 5576 5577 5578 5577 5576 5575 5571 5566 5559 5553 5548 5545 5541 5537 5533 5530 5527 5524 5522 5521 5521 5521 5521 5522 5523 5526 5527 5529 5531 5532
5554 5555 5556 5556 5556 5556 5557 5557 5557 5558 5558 5558 5559 5560 5561 5561 5562 5562 5561 5559 5556 5552 5547 5544 5540 5536 5532 5528 5524 5522 5519 5517 5516 5515 5515 5515 5516 5517 5519 5522 5524 5527 5529 5530
5536 5537 5538 5538 5538 5539 5539 5539 5539 5540 5541 5540 5542 5544 5545 5546 5547 5546 5545 5545 5542 5539 5535 5531 5528 5524 5521 5518 5515 5513 5510 5509 5509 5509 5509 5510 5511 5513 5515 5517 5520 5524 5526 5526
5519 5520 5520 5521 5522 5522 5522 5521 5522 5522 5523 5523 5524 5526 5527 5529 5529 5529 5529 5528 5526 5524 5521 5518 5515 5511 5508 5506 5504 5503 5501 5500 5501 5502 5503 5504 5505 5507 5509 5513 5516 5519 5521 5523